UAL1185 KLAX-MMSD

Flight info

Callsign UAL1185
Flight time N/A
Altitude 37000
Route PNDAH2 OTAYY DCT TIJ UT6 IMUSU UT25 LTO DCT ENEKO ENEKO1A
Aircraft A20N/M-SDE2E3FGHIRWXY/LB1

Departure

Time 2026-04-24 15:44
Airport Los Angeles International Airport (KLAX)

Arrival

Time N/A
Airport Los Cabos International Airport (MMSD)
Time Latitude Longitude Altitude Speed Heading
2026-04-24 15:01 33.94168 -118.39773 125 ft 0 kts 82°
2026-04-24 15:33 33.94181 -118.39839 120 ft 3 kts 170°
2026-04-24 15:33 33.94187 -118.39840 124 ft 0 kts 172°
2026-04-24 15:37 33.94150 -118.39834 123 ft 7 kts 172°
2026-04-24 15:38 33.94089 -118.39825 123 ft 11 kts 176°
2026-04-24 15:38 33.94015 -118.39823 123 ft 5 kts 172°
2026-04-24 15:38 33.93983 -118.39817 123 ft 1 kts 172°
2026-04-24 15:38 33.93958 -118.39810 122 ft 6 kts 157°
2026-04-24 15:39 33.93915 -118.39766 123 ft 10 kts 119°
2026-04-24 15:39 33.93911 -118.39680 121 ft 11 kts 86°
2026-04-24 15:39 33.93920 -118.39581 125 ft 13 kts 80°
2026-04-24 15:39 33.93934 -118.39467 125 ft 15 kts 83°
2026-04-24 15:40 33.93947 -118.39335 125 ft 16 kts 81°
2026-04-24 15:40 33.93965 -118.39199 124 ft 17 kts 85°
2026-04-24 15:40 33.93976 -118.39050 125 ft 19 kts 84°
2026-04-24 15:40 33.93992 -118.38893 125 ft 18 kts 83°
2026-04-24 15:41 33.94007 -118.38736 125 ft 20 kts 85°
2026-04-24 15:41 33.94024 -118.38568 123 ft 21 kts 83°
2026-04-24 15:41 33.94042 -118.38404 121 ft 18 kts 83°
2026-04-24 15:41 33.94057 -118.38250 124 ft 16 kts 83°
2026-04-24 15:42 33.94072 -118.38117 124 ft 15 kts 82°
2026-04-24 15:42 33.94078 -118.38029 125 ft 0 kts 116°
2026-04-24 15:42 33.94073 -118.38020 125 ft 3 kts 128°
2026-04-24 15:42 33.94035 -118.37995 124 ft 12 kts 162°
2026-04-24 15:43 33.93976 -118.38057 125 ft 15 kts 265°
2026-04-24 15:43 33.93963 -118.38228 124 ft 35 kts 263°
2026-04-24 15:43 33.93913 -118.38742 125 ft 93 kts 261°
2026-04-24 15:43 33.93807 -118.39754 124 ft 147 kts 262°
2026-04-24 15:44 33.93667 -118.41144 240 ft 178 kts 263°
2026-04-24 15:44 33.93519 -118.42603 909 ft 172 kts 262°
2026-04-24 15:44 33.93376 -118.44005 1708 ft 167 kts 261°
2026-04-24 15:44 33.93171 -118.45428 2182 ft 180 kts 250°
2026-04-24 15:45 33.92584 -118.46817 2560 ft 195 kts 231°
2026-04-24 15:45 33.91681 -118.48148 2998 ft 215 kts 229°
2026-04-24 15:45 33.90685 -118.49630 3482 ft 238 kts 230°
2026-04-24 15:45 33.89579 -118.51227 4097 ft 257 kts 229°
2026-04-24 15:46 33.88405 -118.52883 5027 ft 262 kts 230°
2026-04-24 15:46 33.87210 -118.54532 5970 ft 267 kts 225°
2026-04-24 15:46 33.85620 -118.55714 6881 ft 274 kts 198°
2026-04-24 15:46 33.83713 -118.55902 7776 ft 281 kts 172°
2026-04-24 15:47 33.82005 -118.55468 8588 ft 285 kts 169°
2026-04-24 15:47 33.80050 -118.54909 9505 ft 290 kts 169°
2026-04-24 15:47 33.78747 -118.54535 10096 ft 293 kts 169°
2026-04-24 15:47 33.76004 -118.53765 10720 ft 319 kts 170°
2026-04-24 15:48 33.73773 -118.53157 11051 ft 340 kts 170°
2026-04-24 15:48 33.71614 -118.52460 11711 ft 348 kts 160°
2026-04-24 15:48 33.70473 -118.51740 12159 ft 354 kts 149°
2026-04-24 15:48 33.68672 -118.49669 12936 ft 366 kts 128°
2026-04-24 15:49 33.67401 -118.47040 13668 ft 374 kts 120°
2026-04-24 15:49 33.66208 -118.44167 14352 ft 380 kts 118°
2026-04-24 15:49 33.65040 -118.41302 15003 ft 386 kts 119°
2026-04-24 15:49 33.63830 -118.38380 15643 ft 392 kts 120°
2026-04-24 15:50 33.62587 -118.35442 16279 ft 398 kts 120°
2026-04-24 15:50 33.61313 -118.32468 16901 ft 404 kts 121°
2026-04-24 15:50 33.60018 -118.29464 17524 ft 409 kts 121°
2026-04-24 15:50 33.58692 -118.26401 18150 ft 415 kts 121°
2026-04-24 15:51 33.57352 -118.23305 18710 ft 420 kts 121°
2026-04-24 15:51 33.56004 -118.20195 19286 ft 424 kts 121°
2026-04-24 15:51 33.54655 -118.17081 19857 ft 428 kts 121°
2026-04-24 15:51 33.53277 -118.13902 20416 ft 432 kts 121°
2026-04-24 15:52 33.51890 -118.10687 20979 ft 436 kts 121°
2026-04-24 15:52 33.50492 -118.07436 21540 ft 440 kts 121°
2026-04-24 15:52 33.49085 -118.04165 22104 ft 444 kts 122°
2026-04-24 15:52 33.47565 -118.00939 22662 ft 444 kts 129°
2026-04-24 15:53 33.45693 -117.98010 23215 ft 441 kts 138°
2026-04-24 15:53 33.43513 -117.95448 23729 ft 438 kts 145°
2026-04-24 15:53 33.41221 -117.93009 24194 ft 442 kts 143°
2026-04-24 15:53 33.38974 -117.90467 24658 ft 446 kts 142°
2026-04-24 15:54 33.36761 -117.87914 25094 ft 449 kts 142°
2026-04-24 15:54 33.34496 -117.85305 25545 ft 452 kts 142°
2026-04-24 15:54 33.32213 -117.82695 25975 ft 455 kts 142°
2026-04-24 15:54 33.29910 -117.80078 26403 ft 458 kts 142°
2026-04-24 15:55 33.27592 -117.77452 26821 ft 461 kts 143°
2026-04-24 15:55 33.25249 -117.74804 27227 ft 464 kts 143°
2026-04-24 15:55 33.22904 -117.72157 27630 ft 467 kts 143°
2026-04-24 15:55 33.20542 -117.69492 28013 ft 470 kts 143°
2026-04-24 15:56 33.18157 -117.66803 28385 ft 472 kts 143°
2026-04-24 15:56 33.15757 -117.64100 28748 ft 475 kts 143°
2026-04-24 15:56 33.13352 -117.61391 29096 ft 478 kts 143°
2026-04-24 15:56 33.10926 -117.58663 29429 ft 481 kts 143°
2026-04-24 15:57 33.08517 -117.55954 29757 ft 483 kts 143°
2026-04-24 15:57 33.06053 -117.53186 30084 ft 486 kts 143°
2026-04-24 15:57 33.03589 -117.50420 30383 ft 488 kts 143°
2026-04-24 15:57 33.01099 -117.47628 30684 ft 490 kts 143°
2026-04-24 15:58 32.98924 -117.45190 30936 ft 492 kts 143°
2026-04-24 15:58 32.96743 -117.42748 31225 ft 494 kts 143°
2026-04-24 15:58 32.94234 -117.39937 31599 ft 493 kts 143°
2026-04-24 15:58 32.91737 -117.37144 31986 ft 493 kts 143°
2026-04-24 15:59 32.89243 -117.34355 32383 ft 492 kts 143°
2026-04-24 15:59 32.86741 -117.31562 32749 ft 492 kts 143°
2026-04-24 15:59 32.84252 -117.28786 33111 ft 491 kts 144°
2026-04-24 15:59 32.81844 -117.26102 33456 ft 491 kts 144°
2026-04-24 16:00 32.79348 -117.23322 33840 ft 490 kts 144°
2026-04-24 16:00 32.76853 -117.20546 34156 ft 490 kts 144°
2026-04-24 16:00 32.74359 -117.17773 34443 ft 490 kts 144°
2026-04-24 16:00 32.71874 -117.15014 34699 ft 490 kts 144°
2026-04-24 16:01 32.69378 -117.12243 34952 ft 490 kts 144°
2026-04-24 16:01 32.66887 -117.09479 35203 ft 490 kts 144°
2026-04-24 16:01 32.64394 -117.06715 35455 ft 490 kts 145°
2026-04-24 16:01 32.61925 -117.03981 35674 ft 491 kts 145°
2026-04-24 16:02 32.59434 -117.01225 35901 ft 491 kts 145°
2026-04-24 16:02 32.56936 -116.98464 36132 ft 491 kts 145°
2026-04-24 16:02 32.54427 -116.95698 36379 ft 490 kts 146°
2026-04-24 16:02 32.51822 -116.93128 36588 ft 486 kts 150°
2026-04-24 16:03 32.49190 -116.90606 36798 ft 486 kts 149°
2026-04-24 16:03 32.46566 -116.88078 36979 ft 486 kts 150°
2026-04-24 16:03 32.41333 -116.83038 37041 ft 485 kts 150°
2026-04-24 16:04 32.36096 -116.78009 37042 ft 485 kts 150°
2026-04-24 16:04 32.30846 -116.72979 37040 ft 485 kts 150°
2026-04-24 16:05 32.22989 -116.65465 37041 ft 485 kts 150°
2026-04-24 16:06 32.15124 -116.57958 37037 ft 484 kts 150°
2026-04-24 16:07 32.07412 -116.50306 37028 ft 485 kts 149°
2026-04-24 16:07 31.99678 -116.42582 37028 ft 485 kts 149°
2026-04-24 16:08 31.91937 -116.34904 37030 ft 485 kts 149°
2026-04-24 16:09 31.84214 -116.27262 37035 ft 486 kts 149°
2026-04-24 16:09 31.79024 -116.22136 37036 ft 487 kts 149°
2026-04-24 16:11 31.65777 -116.09835 37043 ft 483 kts 153°
2026-04-24 16:11 31.60434 -116.05137 37041 ft 484 kts 153°
2026-04-24 16:12 31.52373 -115.97983 37042 ft 484 kts 153°
2026-04-24 16:13 31.44314 -115.90838 37034 ft 482 kts 153°
2026-04-24 16:14 31.33612 -115.81378 37028 ft 483 kts 153°
2026-04-24 16:14 31.25572 -115.74288 37025 ft 482 kts 153°
2026-04-24 16:15 31.17522 -115.67203 37010 ft 483 kts 153°
2026-04-24 16:16 31.09483 -115.60148 37011 ft 483 kts 153°
2026-04-24 16:17 30.96020 -115.48361 37006 ft 484 kts 154°
2026-04-24 16:18 30.85256 -115.38971 37002 ft 485 kts 154°
2026-04-24 16:19 30.77186 -115.31835 36998 ft 488 kts 152°
2026-04-24 16:20 30.69219 -115.24396 36983 ft 489 kts 152°
2026-04-24 16:20 30.61295 -115.17073 36970 ft 487 kts 152°
2026-04-24 16:21 30.53334 -115.09750 36968 ft 487 kts 152°
2026-04-24 16:22 30.48009 -115.04863 36967 ft 487 kts 152°
2026-04-24 16:22 30.40071 -114.97586 36967 ft 487 kts 152°
2026-04-24 16:23 30.34755 -114.92720 36960 ft 487 kts 152°
2026-04-24 16:24 30.26782 -114.85438 36966 ft 487 kts 152°
2026-04-24 16:24 30.21452 -114.80579 36960 ft 486 kts 152°
2026-04-24 16:25 30.16146 -114.75748 36965 ft 487 kts 152°
2026-04-24 16:25 30.10809 -114.70896 36968 ft 487 kts 152°
2026-04-24 16:26 30.02851 -114.63671 36971 ft 488 kts 152°
2026-04-24 16:27 29.94834 -114.56412 36980 ft 488 kts 152°
2026-04-24 16:27 29.89485 -114.51577 36977 ft 488 kts 152°
2026-04-24 16:28 29.84161 -114.46768 36972 ft 488 kts 152°
2026-04-24 16:28 29.76135 -114.39532 36971 ft 487 kts 153°
2026-04-24 16:29 29.70794 -114.34727 36967 ft 486 kts 153°
2026-04-24 16:30 29.60177 -114.25196 36968 ft 486 kts 153°
2026-04-24 16:30 29.54819 -114.20396 36972 ft 486 kts 153°
2026-04-24 16:31 29.49513 -114.15648 36970 ft 486 kts 153°
2026-04-24 16:31 29.44170 -114.10875 36973 ft 486 kts 153°
2026-04-24 16:32 29.38852 -114.06125 36965 ft 485 kts 153°
2026-04-24 16:32 29.33517 -114.01374 36985 ft 484 kts 153°
2026-04-24 16:33 29.28218 -113.96659 36988 ft 483 kts 153°
2026-04-24 16:33 29.22893 -113.91928 36987 ft 483 kts 153°
2026-04-24 16:34 29.17618 -113.87246 36991 ft 484 kts 153°
2026-04-24 16:34 29.12282 -113.82517 36997 ft 485 kts 153°
2026-04-24 16:35 29.06938 -113.77783 36991 ft 483 kts 153°
2026-04-24 16:35 29.01599 -113.73069 36996 ft 485 kts 153°
2026-04-24 16:36 28.97160 -113.69151 36996 ft 484 kts 153°
2026-04-24 16:36 28.90960 -113.63684 36995 ft 484 kts 153°
2026-04-24 16:37 28.85638 -113.58998 36989 ft 484 kts 153°
2026-04-24 16:37 28.80304 -113.54306 37074 ft 484 kts 153°
2026-04-24 16:38 28.75847 -113.50394 36980 ft 485 kts 153°
2026-04-24 16:38 28.70498 -113.45703 36991 ft 486 kts 153°
2026-04-24 16:39 28.65145 -113.41013 36970 ft 486 kts 153°
2026-04-24 16:39 28.59784 -113.36323 36981 ft 486 kts 154°
2026-04-24 16:40 28.54443 -113.31658 36976 ft 486 kts 154°
2026-04-24 16:40 28.49074 -113.26974 36981 ft 486 kts 154°
2026-04-24 16:41 28.43700 -113.22290 36987 ft 486 kts 154°
2026-04-24 16:41 28.38341 -113.17626 36979 ft 486 kts 154°
2026-04-24 16:42 28.32977 -113.12966 36984 ft 486 kts 154°
2026-04-24 16:42 28.27605 -113.08304 36992 ft 485 kts 154°
2026-04-24 16:43 28.22236 -113.03650 36992 ft 485 kts 154°
2026-04-24 16:43 28.16903 -112.99033 36990 ft 485 kts 154°
2026-04-24 16:44 28.11535 -112.94394 36992 ft 485 kts 154°
2026-04-24 16:44 28.06157 -112.89753 37001 ft 486 kts 154°
2026-04-24 16:45 28.00775 -112.85112 36989 ft 485 kts 154°
2026-04-24 16:45 27.95418 -112.80496 36987 ft 485 kts 154°
2026-04-24 16:46 27.90074 -112.75900 36985 ft 484 kts 154°
2026-04-24 16:46 27.84716 -112.71298 36986 ft 484 kts 154°
2026-04-24 16:47 27.79341 -112.66687 36982 ft 484 kts 154°
2026-04-24 16:47 27.73976 -112.62090 36982 ft 484 kts 154°
2026-04-24 16:48 27.68616 -112.57503 36980 ft 484 kts 154°
2026-04-24 16:48 27.63251 -112.52918 36982 ft 483 kts 154°
2026-04-24 16:49 27.57889 -112.48344 36978 ft 483 kts 154°
2026-04-24 16:49 27.52527 -112.43771 36976 ft 483 kts 154°
2026-04-24 16:50 27.47177 -112.39216 36982 ft 482 kts 154°
2026-04-24 16:50 27.41813 -112.34653 36978 ft 482 kts 154°
2026-04-24 16:51 27.36497 -112.30138 36969 ft 482 kts 154°
2026-04-24 16:51 27.31069 -112.25789 36968 ft 473 kts 160°
2026-04-24 16:52 27.25460 -112.21934 36967 ft 473 kts 160°
2026-04-24 16:52 27.19843 -112.18050 36969 ft 473 kts 160°
2026-04-24 16:53 27.14220 -112.14167 36969 ft 474 kts 160°
2026-04-24 16:53 27.08716 -112.10373 36963 ft 474 kts 160°
2026-04-24 16:54 27.03094 -112.06501 36964 ft 474 kts 160°
2026-04-24 16:54 26.97474 -112.02636 36958 ft 474 kts 160°
2026-04-24 16:55 26.91834 -111.98763 36962 ft 475 kts 160°
2026-04-24 16:55 26.86199 -111.94897 36971 ft 475 kts 160°
2026-04-24 16:56 26.80589 -111.91052 36984 ft 475 kts 160°
2026-04-24 16:56 26.74961 -111.87196 36975 ft 474 kts 160°
2026-04-24 16:57 26.69324 -111.83344 36968 ft 475 kts 159°
2026-04-24 16:57 26.63688 -111.79493 36970 ft 475 kts 159°
2026-04-24 16:58 26.58037 -111.75633 36971 ft 475 kts 159°
2026-04-24 16:58 26.52406 -111.71793 36974 ft 475 kts 159°
2026-04-24 16:59 26.46742 -111.67935 36981 ft 476 kts 159°
2026-04-24 17:00 26.38277 -111.62177 36984 ft 476 kts 159°
2026-04-24 17:00 26.29779 -111.56408 36987 ft 476 kts 159°
2026-04-24 17:01 26.21330 -111.50681 36991 ft 476 kts 159°
2026-04-24 17:02 26.12840 -111.44936 36998 ft 475 kts 159°
2026-04-24 17:02 26.07186 -111.41116 36995 ft 475 kts 159°
2026-04-24 17:03 25.98792 -111.35178 37002 ft 484 kts 151°
2026-04-24 17:04 25.93801 -111.29992 37001 ft 496 kts 141°
2026-04-24 17:04 25.86745 -111.21652 36993 ft 495 kts 142°
2026-04-24 17:05 25.82137 -111.16241 36993 ft 495 kts 142°
2026-04-24 17:06 25.75025 -111.07909 36982 ft 494 kts 141°
2026-04-24 17:06 25.67931 -110.99611 36977 ft 493 kts 141°
2026-04-24 17:07 25.63235 -110.94126 36974 ft 493 kts 141°
2026-04-24 17:08 25.53787 -110.83112 36984 ft 492 kts 141°
2026-04-24 17:08 25.49069 -110.77622 36972 ft 491 kts 141°
2026-04-24 17:09 25.39678 -110.66714 36974 ft 491 kts 141°
2026-04-24 17:10 25.30253 -110.55794 36969 ft 490 kts 141°
2026-04-24 17:12 25.11838 -110.34532 36969 ft 488 kts 141°